Notices

What's New in latest Release from April 7th, 2021:

- Updated Glossary, including Speed of Maximum Gust, and Total Hourly Precipitation

- Updated national and regional climate services offices contacts and prices information

- Addition of station inventory lists for 1981-2010, 1971-2000, and 1961-1990 Normals.

If you haven't already, please take our survey and provide feedback about our website: https://eccc.sondage-survey.ca/f/LanguageSelection.aspx?s=442ca660-fcf1-47c0-95a9-59707d6fd709

Hourly Data Report for August 04, 2016

TORONTO CITY
ONTARIO

43°40'00.000" N
79°24'00.000" W
112.50 m
6158355
71508
XTO

Download Data

Hourly Data (August 2016)
Hourly Data Report for August 4, 2016
TIME
LST
Temp Definition
°C
Dew Point Definition
°C
Rel Hum Definition
%
Precip. Amount Definition
mm

Wind Dir Definition
10's deg

Wind Spd Definition
km/h
Visibility Definition
km
Stn Press Definition
kPa
Hmdx Definition


Wind Chill Definition


Weather Definition


00:00 22.3 18.8 80 0.0 LegendMM LegendMM   100.42 29   LegendNANA
01:00 21.7 19.1 85 0.0 LegendMM LegendMM   100.41 29   LegendNANA
02:00 22.4 19.0 81 0.0 LegendMM LegendMM   100.38 29   LegendNANA
03:00 21.6 18.8 84 0.0 LegendMM LegendMM   100.40 28   LegendNANA
04:00 21.0 18.7 87 0.0 LegendMM LegendMM   100.40 28   LegendNANA
05:00 21.0 18.7 87 0.0 LegendMM LegendMM   100.39 28   LegendNANA
06:00 21.1 18.6 86 0.0 LegendMM LegendMM   100.40 28   LegendNANA
07:00 23.1 19.8 82 0.0 LegendMM LegendMM   100.44 31   LegendNANA
08:00 25.3 20.7 76 0.0 LegendMM LegendMM   100.45 33   LegendNANA
09:00 26.7 20.8 70 0.0 LegendMM LegendMM   100.45 35   LegendNANA
10:00 28.1 21.0 65 0.0 LegendMM LegendMM   100.47 37   LegendNANA
11:00 29.8 16.7 45 0.0 LegendMM LegendMM   100.46 35   LegendNANA
12:00 30.3 14.1 37 0.0 LegendMM LegendMM   100.43 34   LegendNANA
13:00 30.5 12.8 34 0.0 LegendMM LegendMM   100.39 33   LegendNANA
14:00 31.1 13.2 34 0.0 LegendMM LegendMM   100.31 34   LegendNANA
15:00 31.3 12.5 32 0.0 LegendMM LegendMM   100.23 34   LegendNANA
16:00 30.8 13.2 34 0.0 LegendMM LegendMM   100.21 34   LegendNANA
17:00 30.1 13.6 37 0.0 LegendMM LegendMM   100.19 33   LegendNANA
18:00 28.5 14.0 41 0.0 LegendMM LegendMM   100.13 32   LegendNANA
19:00 27.1 17.4 55 0.0 LegendMM LegendMM   100.07 33   LegendNANA
20:00 26.1 17.9 61 0.0 LegendMM LegendMM   100.03 32   LegendNANA
21:00 25.5 17.0 60 0.0 LegendMM LegendMM   100.03 31   LegendNANA
22:00 25.8 18.2 63 0.0 LegendMM LegendMM   99.99 32   LegendNANA
23:00 25.5 19.6 70 0.0 LegendMM LegendMM   99.99 33   LegendNANA

Notes on Data Quality.

Legend

  • E = Estimated
  • M = Missing
  • NA = Not Available*
  • [empty] = Indicates an unobserved value
Date modified: